Weather reports worldwide

Advertisment
Lulea/Kallax, Sweden (2186): temperature & dewpoint: 19.05.2018 05:00:00 - 25.05.2018 05:00:00 (CEST)Lulea/Kallax, Sweden (2186): wind speed & gusts: 19.05.2018 05:00:00 - 25.05.2018 05:00:00 (CEST)Lulea/Kallax, Sweden (2186): wind direction: 19.05.2018 05:00:00 - 25.05.2018 05:00:00 (CEST)Lulea/Kallax, Sweden (2186): reduced air pressure: 19.05.2018 05:00:00 - 25.05.2018 05:00:00 (CEST)Lulea/Kallax, Sweden (2186): visibility: 19.05.2018 05:00:00 - 25.05.2018 05:00:00 (CEST)Lulea/Kallax, Sweden (2186): precipitation: 19.05.2018 05:00:00 - 25.05.2018 05:00:00 (CEST)
Date & Time tt [°C] td [°C] ff [km/h] ff [kn] fx [km/h] fx [kn] dd ppp [hPa] vv [km] rr [mm]
25.05.2018 05:00:00 8,3 6,0 8 4 11 6 SSE 1025,0 10 0,0
25.05.2018 04:00:00 5,8 4,3 0 0 4 2 N 1025,1 10 0,0
25.05.2018 03:00:00 5,4 4,0 0 0 4 2 N 1025,4 10 0,0
25.05.2018 02:00:00 5,5 3,8 0 0 4 2 N 1025,8 10 0,0
25.05.2018 01:00:00 6,1 3,9 0 0 7 4 N 1026,1 10 0,0
25.05.2018 00:00:00 7,5 4,6 5 3 7 4 SE 1026,0 10 0,0
24.05.2018 23:00:00 8,0 4,6 2 1 14 8 - 1026,2 10 0,0
24.05.2018 22:00:00 9,3 4,3 5 3 11 6 SE 1026,2 10 0,0
24.05.2018 21:00:00 9,8 5,4 8 4 11 6 ESE 1026,4 10 0,0
24.05.2018 20:00:00 11,2 5,3 8 4 14 8 SSE 1026,5 10 0,0
24.05.2018 19:00:00 11,3 5,4 11 6 14 8 SSE 1026,9 10 0,0
24.05.2018 18:00:00 11,5 5,1 11 6 18 10 SSE 1027,3 45 0,0
24.05.2018 17:00:00 13,0 2,2 13 7 18 10 SE 1027,7 10 0,0
24.05.2018 16:00:00 14,3 0,5 15 8 18 10 SE 1028,2 10 0,0
24.05.2018 15:00:00 13,7 1,7 15 8 25 14 SE 1028,6 10 0,0
24.05.2018 14:00:00 13,4 0,7 15 8 22 12 S 1029,2 10 0,0
24.05.2018 13:00:00 14,3 1,2 11 6 14 8 SE 1029,4 10 0,0
24.05.2018 12:00:00 14,2 0,1 13 7 18 10 SSE 1029,9 10 0,0
24.05.2018 11:00:00 14,7 -1,4 8 4 14 8 ESE 1030,2 10 0,0
24.05.2018 10:00:00 12,7 -0,6 11 6 18 10 NNW 1030,2 10 0,0
24.05.2018 09:00:00 11,4 0,8 11 6 22 12 NW 1030,2 10 0,0
24.05.2018 08:00:00 10,5 1,8 9 5 18 10 NW 1030,2 10 0,0
24.05.2018 07:00:00 9,5 2,1 2 1 14 8 - 1030,0 10 0,0
24.05.2018 06:00:00 8,0 2,0 4 2 7 4 - 1030,0 10 0,0
24.05.2018 05:00:00 6,4 2,5 4 2 7 4 NW 1030,2 10 0,0
24.05.2018 04:00:00 5,3 0,3 0 0 4 2 N 1029,9 10 0,0
24.05.2018 03:00:00 6,5 0,2 4 2 7 4 ESE 1030,0 10 0,0
24.05.2018 02:00:00 8,8 0,3 5 3 11 6 WSW 1030,0 10 0,0
24.05.2018 01:00:00 8,1 0,1 4 2 11 6 SW 1029,8 10 0,0
24.05.2018 00:00:00 8,9 0,1 8 4 14 8 WSW 1029,5 10 0,0
23.05.2018 23:00:00 9,3 0,2 9 5 14 8 WSW 1029,2 10 0,0
23.05.2018 22:00:00 10,3 -1,1 11 6 18 10 WSW 1028,8 10 0,0
23.05.2018 21:00:00 11,5 -1,0 9 5 18 10 - 1028,2 10 0,0
23.05.2018 20:00:00 12,3 -1,3 11 6 22 12 SSW 1027,8 10 0,0
23.05.2018 19:00:00 12,9 -1,4 15 8 22 12 S 1027,3 10 0,0
23.05.2018 18:00:00 15,4 -3,5 11 6 25 14 - 1027,0 10 0,0
23.05.2018 17:00:00 15,3 -3,6 13 7 29 16 NW 1027,0 10 0,0
23.05.2018 16:00:00 15,1 -3,8 18 10 32 18 WNW 1026,7 10 0,0
23.05.2018 15:00:00 14,9 -3,0 16 9 32 18 WNW 1026,5 10 0,0
23.05.2018 14:00:00 14,4 -2,5 18 10 32 18 NW 1026,5 10 0,0
23.05.2018 13:00:00 13,8 -2,6 21 11 29 16 NW 1026,2 10 0,0
23.05.2018 12:00:00 13,3 -3,5 15 8 29 16 N 1026,0 10 0,0
23.05.2018 11:00:00 12,7 -3,6 14 8 32 18 N 1025,8 40 0,0
23.05.2018 10:00:00 12,0 -3,8 18 10 32 18 N 1025,6 10 0,0
23.05.2018 09:00:00 11,2 -2,6 15 8 32 18 N 1025,2 10 0,0
23.05.2018 08:00:00 10,4 -2,0 18 10 29 16 N 1025,0 10 0,0
23.05.2018 07:00:00 9,6 -1,2 15 8 29 16 N 1024,6 10 0,0
23.05.2018 06:00:00 8,5 -0,5 13 7 32 18 NNW 1024,0 10 0,0
23.05.2018 05:00:00 7,9 -0,8 18 10 32 18 NNW 1023,4 10 0,0
23.05.2018 04:00:00 7,3 -1,4 15 8 25 14 NNW 1022,8 10 0,0
23.05.2018 03:00:00 8,2 -1,9 18 10 32 18 NNW 1021,9 10 0,0
23.05.2018 02:00:00 9,2 -1,8 18 10 36 19 N 1021,1 10 0,0
23.05.2018 01:00:00 10,6 -2,4 21 11 36 19 N 1020,3 10 0,0
23.05.2018 00:00:00 12,0 1,9 18 10 32 18 N 1019,8 10 0,0
22.05.2018 23:00:00 13,6 3,7 26 14 36 19 NNW 1018,9 10 0,0
22.05.2018 22:00:00 15,7 5,0 22 12 36 19 NNW 1017,8 10 0,0
22.05.2018 21:00:00 17,4 6,0 21 11 32 18 NW 1016,8 10 0,0
22.05.2018 20:00:00 14,0 8,6 4 2 22 12 - 1016,2 10 0,0
22.05.2018 19:00:00 12,8 7,9 9 5 11 6 SE 1016,1 10 0,0
22.05.2018 18:00:00 13,4 7,8 4 2 14 8 ESE 1016,3 10 0,0
22.05.2018 17:00:00 13,0 7,4 11 6 18 10 SSE 1016,5 10 0,0
22.05.2018 16:00:00 12,5 7,0 13 7 18 10 SSE 1017,0 10 0,0
22.05.2018 15:00:00 13,2 6,8 13 7 18 10 SSE 1017,5 10 0,0
22.05.2018 14:00:00 14,1 7,2 15 8 22 12 SSE 1018,0 10 0,0
22.05.2018 13:00:00 14,3 7,1 18 10 22 12 SE 1018,9 10 0,0
22.05.2018 12:00:00 15,5 7,0 18 10 22 12 SSE 1019,7 10 0,0
22.05.2018 11:00:00 16,4 7,3 15 8 18 10 SSE 1020,4 10 0,0
22.05.2018 10:00:00 17,0 7,1 11 6 18 10 SSE 1020,9 10 0,0
22.05.2018 09:00:00 15,2 6,7 15 8 22 12 S 1021,6 10 0,0
22.05.2018 08:00:00 15,9 6,6 13 7 14 8 SSE 1022,2 10 0,0
22.05.2018 07:00:00 15,2 7,5 8 4 11 6 ESE 1023,0 10 0,0
22.05.2018 06:00:00 13,0 7,9 0 0 4 2 N 1023,3 10 0,0
22.05.2018 05:00:00 10,4 7,5 4 2 7 4 ESE 1023,4 10 0,0
22.05.2018 04:00:00 8,5 6,5 0 0 7 4 N 1023,8 10 0,0
22.05.2018 03:00:00 7,9 5,5 4 2 7 4 SE 1023,8 10 0,0
22.05.2018 02:00:00 9,3 6,0 2 1 4 2 WNW 1023,8 10 0,0
22.05.2018 01:00:00 10,2 6,2 4 2 7 4 ESE 1023,7 10 0,0
22.05.2018 00:00:00 12,1 6,4 4 2 14 8 - 1023,7 10 0,0
21.05.2018 23:00:00 13,8 6,6 9 5 29 16 N 1023,4 10 0,0
21.05.2018 22:00:00 16,3 6,7 22 12 36 19 NW 1023,5 10 0,0
21.05.2018 21:00:00 17,6 6,5 24 13 32 18 NW 1023,0 10 0,0
21.05.2018 20:00:00 19,2 6,7 22 12 32 18 NW 1022,6 10 0,0
21.05.2018 19:00:00 20,2 7,2 9 5 29 16 - 1022,2 10 0,0
21.05.2018 18:00:00 20,8 7,4 5 3 25 14 ESE 1021,9 10 0,0
21.05.2018 17:00:00 19,6 6,7 16 9 25 14 SSW 1021,2 10 0,0
21.05.2018 16:00:00 18,6 5,8 18 10 32 18 SSW 1021,1 10 0,0
21.05.2018 15:00:00 22,5 6,3 21 11 40 21 W 1020,7 10 0,0
21.05.2018 14:00:00 22,1 6,3 24 13 43 23 W 1020,7 10 0,0
21.05.2018 13:00:00 21,2 5,5 22 12 43 23 WNW 1020,5 10 0,0
21.05.2018 12:00:00 21,3 4,8 11 6 32 18 S 1020,3 10 0,0
21.05.2018 11:00:00 20,6 5,4 13 7 22 12 S 1019,9 10 0,0
21.05.2018 10:00:00 19,8 4,7 11 6 22 12 W 1019,8 10 0,0
21.05.2018 09:00:00 18,5 4,3 13 7 18 10 WSW 1019,6 10 0,0
21.05.2018 08:00:00 17,0 5,8 4 2 11 6 - 1019,8 10 0,0
21.05.2018 07:00:00 13,5 7,9 4 2 7 4 SE 1019,9 10 0,0
21.05.2018 06:00:00 10,7 7,2 9 5 11 6 SE 1019,3 10 0,0
21.05.2018 05:00:00 8,4 6,2 2 1 7 4 SE 1018,8 10 0,0
21.05.2018 04:00:00 8,0 5,8 5 3 7 4 SE 1018,6 10 0,0
21.05.2018 03:00:00 7,7 5,7 5 3 7 4 SSE 1018,6 10 0,0
21.05.2018 02:00:00 8,0 5,6 5 3 7 4 SE 1018,7 10 0,0
21.05.2018 01:00:00 8,1 6,1 9 5 14 8 SE 1018,3 10 0,0
21.05.2018 00:00:00 10,5 6,1 8 4 14 8 SW 1018,6 10 0,0
20.05.2018 23:00:00 10,7 6,3 9 5 18 10 SSW 1017,8 10 0,0
20.05.2018 22:00:00 9,4 5,6 8 4 14 8 S 1018,0 10 0,0
20.05.2018 21:00:00 8,9 4,9 9 5 14 8 SSE 1018,0 10 0,0
20.05.2018 20:00:00 9,6 4,4 13 7 18 10 S 1018,2 10 0,0
20.05.2018 19:00:00 11,4 4,1 13 7 22 12 SSW 1017,9 10 0,0
20.05.2018 18:00:00 11,4 4,8 9 5 18 10 SSW 1018,2 10 0,0
20.05.2018 17:00:00 10,2 4,8 11 6 22 12 S 1018,9 10 0,0
20.05.2018 16:00:00 11,9 5,3 13 7 22 12 SSW 1018,9 10 0,0
20.05.2018 15:00:00 12,3 5,7 15 8 36 19 SSW 1019,2 10 0,0
20.05.2018 14:00:00 11,6 5,2 29 16 40 21 SSW 1019,7 10 0,0
20.05.2018 13:00:00 11,4 5,3 15 8 29 16 S 1020,2 10 0,0
20.05.2018 12:00:00 11,7 5,1 21 11 29 16 S 1020,7 10 0,0
20.05.2018 11:00:00 12,0 5,2 21 11 29 16 S 1020,8 10 0,0
20.05.2018 10:00:00 13,5 5,4 15 8 18 10 SSE 1020,8 10 0,0
20.05.2018 09:00:00 12,5 4,7 11 6 18 10 SSE 1021,2 10 0,0
20.05.2018 08:00:00 12,1 4,1 8 4 18 10 SW 1020,9 10 0,0
20.05.2018 07:00:00 10,8 3,6 4 2 7 4 - 1021,2 10 0,0
20.05.2018 06:00:00 9,9 3,4 2 1 7 4 - 1021,0 10 0,0
20.05.2018 05:00:00 7,5 3,0 2 1 4 2 SE 1020,8 10 0,0
20.05.2018 04:00:00 6,5 1,6 4 2 11 6 - 1020,3 10 0,0
20.05.2018 03:00:00 8,8 1,2 9 5 14 8 WNW 1019,7 10 0,0
20.05.2018 02:00:00 8,6 1,5 8 4 11 6 NNW 1019,4 10 0,0
20.05.2018 01:00:00 9,8 2,6 9 5 14 8 WNW 1019,1 10 0,0
20.05.2018 00:00:00 9,0 2,3 5 3 11 6 WNW 1018,7 10 0,0
19.05.2018 23:00:00 11,2 2,5 9 5 14 8 W 1018,3 10 0,0
19.05.2018 22:00:00 13,4 2,0 9 5 22 12 W 1017,9 10 0,0
19.05.2018 21:00:00 14,7 1,2 16 9 25 14 WNW 1017,3 10 0,0
19.05.2018 20:00:00 16,2 1,9 21 11 36 19 WNW 1016,8 10 0,0
19.05.2018 19:00:00 15,6 3,4 9 5 22 12 WSW 1016,8 10 0,0
19.05.2018 18:00:00 12,4 3,1 11 6 25 14 SW 1016,8 10 0,0
19.05.2018 17:00:00 12,0 1,3 16 9 32 18 SSW 1016,8 10 0,0
19.05.2018 16:00:00 12,7 1,1 21 11 32 18 S 1016,8 10 0,0
19.05.2018 15:00:00 12,2 1,8 26 14 40 21 S 1017,1 10 0,0
19.05.2018 14:00:00 12,6 1,6 29 16 40 21 S 1017,3 10 0,0
19.05.2018 13:00:00 12,9 1,9 22 12 32 18 S 1017,7 10 0,0
19.05.2018 12:00:00 12,8 1,2 22 12 36 19 S 1018,1 10 0,0
19.05.2018 11:00:00 13,3 1,3 18 10 32 18 SSW 1018,3 10 0,0
19.05.2018 10:00:00 13,0 1,3 13 7 18 10 S 1018,7 10 0,0
19.05.2018 09:00:00 12,3 0,1 9 5 18 10 SW 1018,9 10 0,0
19.05.2018 08:00:00 11,4 1,1 4 2 14 8 - 1019,1 10 0,0
19.05.2018 07:00:00 9,8 0,9 9 5 14 8 NW 1019,0 10 0,0
19.05.2018 06:00:00 8,3 1,0 13 7 14 8 NW 1019,1 10 0,0
19.05.2018 05:00:00 6,3 0,4 9 5 11 6 NW 1019,1 10 0,0

tt = temperature
td = dewpoint
ff = wind speed
fx = gusts
dd = wind direction
ppp = reduced air pressure
vv = visibility
rr = precipitation

Next stations